Weather History for Clarion, IA

Change the Weather History Date:

Monday, October 1, 2012

  Actual Average Record
Temperature  
Mean Temperature 60 °F -  
Max Temperature 75 °F 72 °F 89 °F (2006)
Min Temperature 46 °F 44 °F 22 °F (1958)
Degree Days  
Heating Degree Days 4    
Growing Degree Days 10 (Base 50)    
Moisture  
Dew Point 35 °F    
Average Humidity 44    
Maximum Humidity 76    
Minimum Humidity 19    
Precipitation  
Precipitation 0.00 in - - ()
Sea Level Pressure  
Sea Level Pressure 29.91 in    
Wind  
Wind Speed 7 mph (NNW)    
Max Wind Speed 21 mph    
Max Gust Speed 29 mph    
Visibility 10 miles    
Events      
Averages and records for this station are not official NWS values.
T = Trace of Precipitation, MM = Missing Value Source: NWS Daily Summary

Daily Weather History Graph

Daily Weather History Graph

Search for Another Location

Airport:

Trip Planner

Search our weather history database for the weather conditions in past years. The results will help you decide how hot, cold, wet, or windy it might be!

Date:

Astronomy

Oct. 01, 2012 Rise Set
Actual Time 7:12 AM CDT 6:55 PM CDT
Civil Twilight 6:44 AM CDT 7:23 PM CDT
Nautical Twilight 6:11 AM CDT 7:56 PM CDT
Astronomical Twilight 5:38 AM CDT 8:29 PM CDT
Moon 7:29 PM CDT (10/1) 8:46 AM CDT (10/1)
Length of Visible Light 12h 38m
Length of Day
11h 42m
Full, 98% of the Moon is Illuminated
Oct 1
Full
Oct 8
Last Quarter
Oct 15
New
Oct 21
First Quarter
Oct 29
Full

Hourly Weather History & Observations

Time (CDT) Temp. Windchill Dew Point Humidity Pressure Visibility Wind Dir Wind Speed Gust Speed Precip Events Conditions
12:15 AM 57.2 °F - 35.6 °F 44% 29.92 in 10.0 mi SE 4.6 mph - N/A   Clear
12:35 AM 57.2 °F - 35.6 °F 44% 29.92 in 10.0 mi SE 5.8 mph - N/A   Clear
12:55 AM 57.2 °F - 35.6 °F 44% 29.92 in 10.0 mi SE 3.5 mph - N/A   Clear
1:15 AM 55.4 °F - 35.6 °F 47% 29.92 in 10.0 mi Calm Calm - N/A   Clear
1:35 AM 55.4 °F - 35.6 °F 47% 29.92 in 10.0 mi Calm Calm - N/A   Clear
1:55 AM 53.6 °F - 35.6 °F 51% 29.91 in 10.0 mi Calm Calm - N/A   Clear
2:35 AM 53.6 °F - 35.6 °F 51% 29.91 in 10.0 mi SE 3.5 mph - N/A   Clear
2:55 AM 51.8 °F - 37.4 °F 58% 29.90 in 10.0 mi Calm Calm - N/A   Clear
3:35 AM 51.8 °F - 37.4 °F 58% 29.89 in 10.0 mi SSE 3.5 mph - N/A   Clear
3:55 AM 51.8 °F - 37.4 °F 58% 29.89 in 10.0 mi SSE 4.6 mph - N/A   Clear
4:15 AM 51.8 °F - 37.4 °F 58% 29.89 in 10.0 mi SSE 3.5 mph - N/A   Clear
4:35 AM 51.8 °F - 37.4 °F 58% 29.89 in 10.0 mi South 3.5 mph - N/A   Clear
4:55 AM 51.8 °F - 37.4 °F 58% 29.89 in 10.0 mi SSE 3.5 mph - N/A   Clear
5:15 AM 50.0 °F - 37.4 °F 62% 29.89 in 10.0 mi SSE 3.5 mph - N/A   Clear
5:35 AM 51.8 °F - 37.4 °F 58% 29.90 in 10.0 mi Calm Calm - N/A   Clear
5:55 AM 48.2 °F - 37.4 °F 66% 29.89 in 10.0 mi Calm Calm - N/A   Clear
6:15 AM 48.2 °F - 37.4 °F 66% 29.89 in 10.0 mi South 3.5 mph - N/A   Clear
6:35 AM 46.4 °F 45.2 °F 37.4 °F 71% 29.89 in 10.0 mi South 3.5 mph - N/A   Clear
6:55 AM 46.4 °F - 37.4 °F 71% 29.90 in 10.0 mi Calm Calm - N/A   Clear
7:15 AM 46.4 °F 45.2 °F 37.4 °F 71% 29.90 in 4.0 mi WSW 3.5 mph - N/A   Haze
7:35 AM 46.4 °F 45.2 °F 37.4 °F 71% 29.91 in 5.0 mi West 3.5 mph - N/A   Haze
8:15 AM 46.4 °F - 39.2 °F 76% 29.91 in 7.0 mi Calm Calm - N/A   Clear
8:35 AM 48.2 °F - 39.2 °F 71% 29.92 in 7.0 mi Calm Calm - N/A   Clear
9:35 AM 60.8 °F - 44.6 °F 55% 29.91 in 10.0 mi North 12.7 mph - N/A   Clear
9:55 AM 62.6 °F - 46.4 °F 55% 29.91 in 10.0 mi North 12.7 mph 19.6 mph N/A   Clear
10:15 AM 66.2 °F - 44.6 °F 46% 29.91 in 10.0 mi North 17.3 mph 21.9 mph N/A   Clear
10:35 AM 66.2 °F - 44.6 °F 46% 29.91 in 10.0 mi North 16.1 mph 20.7 mph N/A   Clear
10:55 AM 66.2 °F - 44.6 °F 46% 29.91 in 10.0 mi North 13.8 mph 20.7 mph N/A   Clear
11:15 AM 68.0 °F - 44.6 °F 43% 29.91 in 10.0 mi North 13.8 mph - N/A   Clear
11:35 AM 69.8 °F - 42.8 °F 38% 29.91 in 10.0 mi NNW 16.1 mph 21.9 mph N/A   Clear
12:15 PM 71.6 °F - 39.2 °F 31% 29.91 in 10.0 mi NNW 17.3 mph - N/A   Clear
12:35 PM 71.6 °F - 39.2 °F 31% 29.91 in 10.0 mi North 13.8 mph 20.7 mph N/A   Clear
12:55 PM 71.6 °F - 39.2 °F 31% 29.91 in 10.0 mi North 16.1 mph 24.2 mph N/A   Clear
1:15 PM 73.4 °F - 39.2 °F 29% 29.90 in 10.0 mi NNW 15.0 mph 24.2 mph N/A   Clear
1:35 PM 73.4 °F - 39.2 °F 29% 29.90 in 10.0 mi North 16.1 mph 28.8 mph N/A   Clear
1:55 PM 75.2 °F - 39.2 °F 27% 29.89 in 10.0 mi NNW 15.0 mph 27.6 mph N/A   Clear
2:15 PM 75.2 °F - 37.4 °F 25% 29.88 in 10.0 mi NNW 17.3 mph 23.0 mph N/A   Clear
2:55 PM 75.2 °F - 33.8 °F 22% 29.88 in 10.0 mi NNW 18.4 mph 26.5 mph N/A   Clear
3:15 PM 73.4 °F - 33.8 °F 23% 29.88 in 10.0 mi NNW 20.7 mph 27.6 mph N/A   Clear
3:35 PM 73.4 °F - 33.8 °F 23% 29.88 in 10.0 mi NNW 19.6 mph 24.2 mph N/A   Clear
3:55 PM 73.4 °F - 30.2 °F 20% 29.88 in 10.0 mi NNW 17.3 mph 25.3 mph N/A   Clear
4:15 PM 73.4 °F - 30.2 °F 20% 29.89 in 10.0 mi NNW 13.8 mph 24.2 mph N/A   Clear
4:35 PM 71.6 °F - 28.4 °F 20% 29.89 in 10.0 mi NNW 16.1 mph 25.3 mph N/A   Clear
4:55 PM 71.6 °F - 26.6 °F 19% 29.89 in 10.0 mi NNW 18.4 mph 25.3 mph N/A   Clear
5:15 PM 71.6 °F - 26.6 °F 19% 29.89 in 10.0 mi NNW 16.1 mph 24.2 mph N/A   Clear
5:35 PM 71.6 °F - 26.6 °F 19% 29.89 in 10.0 mi North 16.1 mph 24.2 mph N/A   Scattered Clouds
5:55 PM 71.6 °F - 26.6 °F 19% 29.90 in 10.0 mi North 15.0 mph 19.6 mph N/A   Clear
6:15 PM 69.8 °F - 26.6 °F 20% 29.90 in 10.0 mi North 13.8 mph 23.0 mph N/A   Clear
6:35 PM 68.0 °F - 28.4 °F 23% 29.90 in 10.0 mi North 10.4 mph - N/A   Clear
6:55 PM 66.2 °F - 28.4 °F 24% 29.91 in 10.0 mi North 8.1 mph - N/A   Clear
7:15 PM 62.6 °F - 28.4 °F 27% 29.91 in 10.0 mi North 8.1 mph - N/A   Clear
7:35 PM 60.8 °F - 30.2 °F 31% 29.91 in 10.0 mi North 8.1 mph - N/A   Clear
7:55 PM 57.2 °F - 30.2 °F 36% 29.92 in 10.0 mi NNW 5.8 mph - N/A   Clear
8:15 PM 55.4 °F - 30.2 °F 38% 29.92 in 10.0 mi NNW 4.6 mph - N/A   Clear
8:35 PM 55.4 °F - 30.2 °F 38% 29.92 in 7.0 mi North 5.8 mph - N/A   Clear
8:55 PM 53.6 °F - 30.2 °F 41% 29.93 in 10.0 mi NNW 6.9 mph - N/A   Clear
9:15 PM 55.4 °F - 33.8 °F 44% 29.93 in 7.0 mi NNW 8.1 mph - N/A   Clear
9:35 PM 53.6 °F - 33.8 °F 47% 29.94 in 10.0 mi NNW 5.8 mph - N/A   Clear
9:55 PM 51.8 °F - 33.8 °F 50% 29.94 in 10.0 mi NNW 5.8 mph - N/A   Clear
10:15 PM 53.6 °F - 33.8 °F 47% 29.94 in 10.0 mi NNW 6.9 mph - N/A   Clear
10:35 PM 51.8 °F - 35.6 °F 54% 29.94 in 10.0 mi NNW 6.9 mph - N/A   Clear
10:55 PM 50.0 °F - 33.8 °F 54% 29.94 in 10.0 mi NNW 6.9 mph - N/A   Clear
11:15 PM 48.2 °F - 33.8 °F 58% 29.94 in 10.0 mi NNW 4.6 mph - N/A   Clear
11:35 PM 48.2 °F - 33.8 °F 58% 29.94 in 10.0 mi NNW 4.6 mph - N/A   Clear
11:55 PM 46.4 °F 43.5 °F 33.8 °F 62% 29.94 in 10.0 mi NNW 5.8 mph - N/A   Clear